Tracking 19153 objects as of 26-Apr-2018
HD Live streaming from Space Station
objects crossing your sky now

FENGYUN 1C DEB

Track FENGYUN 1C DEB now!
10-day predictions


NORAD ID: 30350
Int'l Code: 1999-025ABM
Perigee: 808.5 km
Apogee: 1,145.2 km
Inclination: 98.1 °
Period: 104.5 minutes
Semi major axis: 7347 km
RCS: 0.0298 m2 (small)
Launch date: May 10, 1999
Source: People's Republic of China (PRC)
Launch site: Taiyaun Space Center, China (TSC)

Note: This is SATELLITE DEBRIS
aabbcc
Your satellite tracking list
Your tracking list is empty




NASA's NSSDC Master Catalog

Two Line Element Set (TLE):
1 30350U 99025ABM 18116.05501765  .00000220  00000-0  20661-3 0  9994
2 30350  98.1061 287.1139 0229123  29.4858  87.6278 13.78348641565531
Source of the keplerian elements: AFSPC